Date,Installs,Update checks
2019-03-19,0,0
2019-03-20,6,0
2019-03-21,5,1
2019-03-22,11,3
2019-03-23,3,6
2019-03-24,3,2
2019-03-25,3,7
2019-03-26,1,5
2019-03-27,3,6
2019-03-28,1,5
2019-03-29,3,10
2019-03-30,1,6
2019-03-31,3,6
2019-04-01,4,7
2019-04-02,1,7
2019-04-03,2,4
2019-04-04,4,9
2019-04-05,2,10
2019-04-06,1,13
2019-04-07,2,13
2019-04-08,3,12
2019-04-09,4,10
2019-04-10,1,8
2019-04-11,3,11
2019-04-12,3,10
2019-04-13,4,11
2019-04-14,5,13
2019-04-15,4,15
2019-04-16,1,16
2019-04-17,0,20
2019-04-18,2,18
2019-04-19,1,17
2019-04-20,1,20
2019-04-21,4,16
2019-04-22,3,16
2019-04-23,3,20
2019-04-24,6,19
2019-04-25,6,25
2019-04-26,5,22
2019-04-27,2,22
2019-04-28,5,21
2019-04-29,6,19
2019-04-30,5,31
2019-05-01,4,20
2019-05-02,5,20
2019-05-03,2,25
2019-05-04,1,28
2019-05-05,8,28
2019-05-06,2,24
2019-05-07,5,23
2019-05-08,10,31
2019-05-09,8,26
2019-05-10,9,38
2019-05-11,5,34
2019-05-12,4,30
2019-05-13,1,28
2019-05-14,2,32
2019-05-15,5,30
2019-05-16,4,31
2019-05-17,1,38
2019-05-18,3,34
2019-05-19,4,34
2019-05-20,4,25
2019-05-21,1,37
2019-05-22,0,33
2019-05-23,3,30
2019-05-24,3,29
2019-05-25,1,33
2019-05-26,6,43
2019-05-27,4,27
2019-05-28,3,30
2019-05-29,3,37
2019-05-30,5,40
2019-05-31,2,41
2019-06-01,5,50
2019-06-02,6,42
2019-06-03,2,34
2019-06-04,2,43
2019-06-05,6,35
2019-06-06,8,40
2019-06-07,5,31
2019-06-08,9,45
2019-06-09,10,50
2019-06-10,9,49
2019-06-11,5,44
2019-06-12,4,53
2019-06-13,5,55
2019-06-14,8,49
2019-06-15,4,63
2019-06-16,5,47
2019-06-17,5,52
2019-06-18,3,44
2019-06-19,2,49
2019-06-20,12,49
2019-06-21,5,59
2019-06-22,6,43
2019-06-23,8,49
2019-06-24,7,52
2019-06-25,8,60
2019-06-26,5,61
2019-06-27,4,50
2019-06-28,5,57
2019-06-29,4,56
2019-06-30,8,55
2019-07-01,15,54
2019-07-02,9,54
2019-07-03,10,56
2019-07-04,5,53
2019-07-05,6,44
2019-07-06,15,66
2019-07-07,20,74
2019-07-08,9,78
2019-07-09,14,81
2019-07-10,6,68
2019-07-11,3,77
2019-07-12,5,79
2019-07-13,13,68
2019-07-14,8,80
2019-07-15,12,80
2019-07-16,7,78
2019-07-17,6,95
2019-07-18,3,77
2019-07-19,10,86
2019-07-20,7,58
2019-07-21,12,79
2019-07-22,8,86
2019-07-23,9,83
2019-07-24,6,87
2019-07-25,7,83
2019-07-26,8,99
2019-07-27,9,93
2019-07-28,10,91
2019-07-29,6,100
2019-07-30,12,101
2019-07-31,11,112
2019-08-01,16,93
2019-08-02,6,103
2019-08-03,8,95
2019-08-04,11,102
2019-08-05,14,101
2019-08-06,7,102
2019-08-07,8,109
2019-08-08,13,101
2019-08-09,9,103
2019-08-10,10,104
2019-08-11,6,111
2019-08-12,8,111
2019-08-13,8,123
2019-08-14,5,111
2019-08-15,13,115
2019-08-16,6,118
2019-08-17,11,118
2019-08-18,8,98
2019-08-19,8,114
2019-08-20,8,113
2019-08-21,10,129
2019-08-22,6,125
2019-08-23,11,122
2019-08-24,14,113
2019-08-25,17,122
2019-08-26,9,122
2019-08-27,5,122
2019-08-28,14,128
2019-08-29,6,128
2019-08-30,5,142
2019-08-31,8,122
2019-09-01,15,124
2019-09-02,11,135
2019-09-03,10,138
2019-09-04,23,146
2019-09-05,9,131
2019-09-06,11,125
2019-09-07,13,135
2019-09-08,6,152
2019-09-09,11,137
2019-09-10,13,139
2019-09-11,10,152
2019-09-12,6,150
2019-09-13,13,143
2019-09-14,11,137
2019-09-15,11,134
2019-09-16,13,150
2019-09-17,6,140
2019-09-18,8,154
2019-09-19,6,146
2019-09-20,10,166
2019-09-21,6,150
2019-09-22,10,159
2019-09-23,13,160
2019-09-24,18,169
2019-09-25,19,164
2019-09-26,11,150
2019-09-27,4,155
2019-09-28,13,151
2019-09-29,12,144
2019-09-30,11,172
2019-10-01,13,165
2019-10-02,8,174
2019-10-03,16,160
2019-10-04,5,164
2019-10-05,16,163
2019-10-06,9,161
2019-10-07,14,177
2019-10-08,10,163
2019-10-09,7,192
2019-10-10,17,174
2019-10-11,13,197
2019-10-12,15,178
2019-10-13,11,187
2019-10-14,14,165
2019-10-15,15,205
2019-10-16,12,202
2019-10-17,13,202
2019-10-18,18,200
2019-10-19,11,188
2019-10-20,11,202
2019-10-21,17,213
2019-10-22,9,212
2019-10-23,23,203
2019-10-24,8,198
2019-10-25,10,214
2019-10-26,14,203
2019-10-27,15,179
2019-10-28,18,217
2019-10-29,17,217
2019-10-30,29,219
2019-10-31,20,203
2019-11-01,9,222
2019-11-02,12,204
2019-11-03,17,195
2019-11-04,11,232
2019-11-05,9,231
2019-11-06,11,218
2019-11-07,9,212
2019-11-08,5,233
2019-11-09,12,234
2019-11-10,11,223
2019-11-11,8,231
2019-11-12,8,220
2019-11-13,10,218
2019-11-14,12,246
2019-11-15,11,215
2019-11-16,13,222
2019-11-17,9,216
2019-11-18,8,248
2019-11-19,7,220
2019-11-20,8,236
2019-11-21,9,245
2019-11-22,13,238
2019-11-23,10,222
2019-11-24,8,234
2019-11-25,12,237
2019-11-26,7,219
2019-11-27,4,235
2019-11-28,14,231
2019-11-29,13,233
2019-11-30,13,219
2019-12-01,10,220
2019-12-02,17,237
2019-12-03,8,243
2019-12-04,11,254
2019-12-05,5,254
2019-12-06,9,224
2019-12-07,16,243
2019-12-08,15,243
2019-12-09,5,256
2019-12-10,10,254
2019-12-11,8,257
2019-12-12,16,241
2019-12-13,13,265
2019-12-14,11,234
2019-12-15,10,241
2019-12-16,10,242
2019-12-17,9,224
2019-12-18,10,246
2019-12-19,12,246
2019-12-20,10,242
2019-12-21,13,240
2019-12-22,10,222
2019-12-23,11,234
2019-12-24,12,247
2019-12-25,7,243
2019-12-26,15,261
2019-12-27,15,260
2019-12-28,9,248
2019-12-29,11,236
2019-12-30,12,268
2019-12-31,8,261
2020-01-01,16,249
2020-01-02,7,267
2020-01-03,7,280
2020-01-04,12,255
2020-01-05,11,259
2020-01-06,13,279
2020-01-07,11,287
2020-01-08,9,256
2020-01-09,12,279
2020-01-10,7,254
2020-01-11,9,254
2020-01-12,9,242
2020-01-13,12,268
2020-01-14,6,254
2020-01-15,10,260
2020-01-16,7,280
2020-01-17,3,237
2020-01-18,13,274
2020-01-19,8,255
2020-01-20,13,276
2020-01-21,13,247
2020-01-22,9,255
2020-01-23,12,239
2020-01-24,10,237
2020-01-25,15,239
2020-01-26,15,232
2020-01-27,12,257
2020-01-28,10,254
2020-01-29,15,269
2020-01-30,14,279
2020-01-31,17,271
2020-02-01,15,282
2020-02-02,13,274
2020-02-03,12,284
2020-02-04,17,294
2020-02-05,15,280
2020-02-06,15,281
2020-02-07,13,287
2020-02-08,11,112
2020-02-09,14,166
2020-02-10,14,321
2020-02-11,10,294
2020-02-12,12,312
2020-02-13,14,297
2020-02-14,10,291
2020-02-15,7,289
2020-02-16,12,298
2020-02-17,17,314
2020-02-18,16,308
2020-02-19,15,318
2020-02-20,10,309
2020-02-21,9,305
2020-02-22,21,304
2020-02-23,4,274
2020-02-24,8,323
2020-02-25,14,316
2020-02-26,15,324
2020-02-27,14,310
2020-02-28,14,327
2020-02-29,25,300
2020-03-01,18,310
2020-03-02,10,342
2020-03-03,15,314
2020-03-04,10,340
2020-03-05,17,334
2020-03-06,11,332
2020-03-07,17,326
2020-03-08,17,305
2020-03-09,13,343
2020-03-10,18,332
2020-03-11,13,342
2020-03-12,16,354
2020-03-13,17,340
2020-03-14,15,335
2020-03-15,22,327
2020-03-16,17,360
2020-03-17,15,334
2020-03-18,8,330
2020-03-19,12,335
2020-03-20,8,358
2020-03-21,13,368
2020-03-22,27,328
2020-03-23,21,378
2020-03-24,13,361
2020-03-25,17,391
2020-03-26,13,363
2020-03-27,15,382
2020-03-28,6,354
2020-03-29,18,364
2020-03-30,23,389
2020-03-31,24,383
2020-04-01,24,398
2020-04-02,26,369
2020-04-03,18,390
2020-04-04,9,372
2020-04-05,12,385
2020-04-06,14,368
2020-04-07,18,412
2020-04-08,16,387
2020-04-09,24,418
2020-04-10,21,401
2020-04-11,9,385
2020-04-12,15,379
2020-04-13,18,413
2020-04-14,12,389
2020-04-15,10,399
2020-04-16,14,414
2020-04-17,21,408
2020-04-18,20,410
2020-04-19,16,392
2020-04-20,22,419
2020-04-21,25,423
2020-04-22,16,403
2020-04-23,19,436
2020-04-24,14,423
2020-04-25,16,405
2020-04-26,11,412
2020-04-27,18,434
2020-04-28,25,427
2020-04-29,23,433
2020-04-30,27,465
2020-05-01,27,419
2020-05-02,16,425
2020-05-03,11,391
2020-05-04,12,429
2020-05-05,14,442
2020-05-06,11,441
2020-05-07,18,463
2020-05-08,13,443
2020-05-09,15,448
2020-05-10,9,436
2020-05-11,14,429
2020-05-12,20,438
2020-05-13,13,437
2020-05-14,14,438
2020-05-15,17,459
2020-05-16,16,425
2020-05-17,14,444
2020-05-18,11,450
2020-05-19,13,484
2020-05-20,13,460
2020-05-21,10,435
2020-05-22,10,456
2020-05-23,14,461
2020-05-24,11,410
2020-05-25,13,478
2020-05-26,15,463
2020-05-27,11,458
2020-05-28,14,458
2020-05-29,12,455
2020-05-30,18,455
2020-05-31,25,453
2020-06-01,16,470
2020-06-02,11,471
2020-06-03,12,465
2020-06-04,13,445
2020-06-05,7,499
2020-06-06,16,461
2020-06-07,23,445
2020-06-08,11,460
2020-06-09,15,422
2020-06-10,13,481
2020-06-11,8,452
2020-06-12,17,455
2020-06-13,13,484
2020-06-14,13,466
2020-06-15,12,471
2020-06-16,19,456
2020-06-17,15,480
2020-06-18,16,452
2020-06-19,13,479
2020-06-20,13,463
2020-06-21,9,474
2020-06-22,13,449
2020-06-23,11,475
2020-06-24,15,489
2020-06-25,22,460
2020-06-26,11,472
2020-06-27,8,477
2020-06-28,16,492
2020-06-29,10,485
2020-06-30,17,478
2020-07-01,22,489
2020-07-02,11,473
2020-07-03,17,498
2020-07-04,29,484
2020-07-05,21,496
2020-07-06,27,518
2020-07-07,14,504
2020-07-08,12,480
2020-07-09,16,517
2020-07-10,14,518
2020-07-11,11,487
2020-07-12,14,474
2020-07-13,13,503
2020-07-14,19,479
2020-07-15,14,494
2020-07-16,13,505
2020-07-17,12,519
2020-07-18,13,453
2020-07-19,15,488
2020-07-20,24,484
2020-07-21,18,492
2020-07-22,13,523
2020-07-23,23,483
2020-07-24,16,506
2020-07-25,17,498
2020-07-26,14,496
2020-07-27,15,522
2020-07-28,15,530
2020-07-29,24,534
2020-07-30,20,505
2020-07-31,29,528
2020-08-01,25,500
2020-08-02,20,509
2020-08-03,17,516
2020-08-04,14,541
2020-08-05,17,531
2020-08-06,22,558
2020-08-07,9,542
2020-08-08,20,538
2020-08-09,18,521
2020-08-10,15,579
2020-08-11,20,547
2020-08-12,11,558
2020-08-13,9,559
2020-08-14,19,576
2020-08-15,13,541
2020-08-16,17,522
2020-08-17,19,565
2020-08-18,12,543
2020-08-19,12,567
2020-08-20,23,563
2020-08-21,18,557
2020-08-22,8,539
2020-08-23,11,549
2020-08-24,14,605
2020-08-25,11,566
2020-08-26,17,577
2020-08-27,12,541
2020-08-28,11,583
2020-08-29,18,542
2020-08-30,17,531
2020-08-31,20,573
2020-09-01,33,548
2020-09-02,12,563
2020-09-03,8,537
2020-09-04,11,562
2020-09-05,18,566
2020-09-06,13,523
2020-09-07,9,582
2020-09-08,20,568
2020-09-09,15,533
2020-09-10,14,564
2020-09-11,9,590
2020-09-12,13,570
2020-09-13,19,540
2020-09-14,10,589
2020-09-15,15,579
2020-09-16,11,580
2020-09-17,9,570
2020-09-18,7,572
2020-09-19,9,543
2020-09-20,12,531
2020-09-21,17,560
2020-09-22,11,584
2020-09-23,4,570
2020-09-24,8,581
2020-09-25,5,567
2020-09-26,11,535
2020-09-27,13,570
2020-09-28,9,555
2020-09-29,13,587
2020-09-30,9,611
2020-10-01,21,541
2020-10-02,10,573
2020-10-03,13,555
2020-10-04,15,586
2020-10-05,24,572
2020-10-06,9,576
2020-10-07,9,578
2020-10-08,11,585
2020-10-09,8,577
2020-10-10,10,612
2020-10-11,11,549
2020-10-12,15,566
2020-10-13,4,586
2020-10-14,9,573
2020-10-15,11,602
2020-10-16,5,581
2020-10-17,11,577
2020-10-18,7,534
2020-10-19,9,573
2020-10-20,13,583
2020-10-21,9,594
2020-10-22,7,585
2020-10-23,9,596
2020-10-24,10,576
2020-10-25,10,579
2020-10-26,9,562
2020-10-27,11,564
2020-10-28,17,567
2020-10-29,11,590
2020-10-30,4,599
2020-10-31,10,594
2020-11-01,10,555
2020-11-02,11,629
2020-11-03,16,582
2020-11-04,10,606
2020-11-05,13,605
2020-11-06,12,629
2020-11-07,11,594
2020-11-08,17,587
2020-11-09,7,609
2020-11-10,16,613
2020-11-11,8,641
2020-11-12,13,592
2020-11-13,15,638
2020-11-14,14,603
2020-11-15,21,602
2020-11-16,12,601
2020-11-17,8,585
2020-11-18,8,595
2020-11-19,14,627
2020-11-20,11,613
2020-11-21,11,629
2020-11-22,15,560
2020-11-23,10,609
2020-11-24,3,610
2020-11-25,13,601
2020-11-26,10,611
2020-11-27,11,643
2020-11-28,13,615
2020-11-29,16,592
2020-11-30,9,620
2020-12-01,15,629
2020-12-02,11,610
2020-12-03,23,611
2020-12-04,16,658
2020-12-05,14,623
2020-12-06,19,620
2020-12-07,15,638
2020-12-08,13,648
2020-12-09,13,622
2020-12-10,7,645
2020-12-11,4,614
2020-12-12,9,618
2020-12-13,9,619
2020-12-14,11,612
2020-12-15,13,621
2020-12-16,12,633
2020-12-17,12,624
2020-12-18,6,645
2020-12-19,9,625
2020-12-20,10,560
2020-12-21,11,621
2020-12-22,9,615
2020-12-23,10,621
2020-12-24,8,619
2020-12-25,6,611
2020-12-26,10,634
2020-12-27,12,578
2020-12-28,12,614
2020-12-29,14,649
2020-12-30,11,603
2020-12-31,10,636
2021-01-01,15,597
2021-01-02,12,620
2021-01-03,13,608
2021-01-04,4,657
2021-01-05,5,654
2021-01-06,8,649
2021-01-07,2,643
2021-01-08,7,644
2021-01-09,9,633
2021-01-10,10,622
2021-01-11,7,651
2021-01-12,14,661
2021-01-13,11,656
2021-01-14,9,629
2021-01-15,12,667
2021-01-16,7,633
2021-01-17,12,631
2021-01-18,5,654
2021-01-19,12,672
2021-01-20,9,666
2021-01-21,15,722
2021-01-22,4,677
2021-01-23,6,653
2021-01-24,16,659
2021-01-25,9,676
2021-01-26,14,693
2021-01-27,9,688
2021-01-28,9,670
2021-01-29,4,677
2021-01-30,13,593
2021-01-31,16,669
2021-02-01,12,708
2021-02-02,7,695
2021-02-03,6,691
2021-02-04,2,710
2021-02-05,2,721
2021-02-06,10,676
2021-02-07,8,662
2021-02-08,17,657
2021-02-09,12,505
2021-02-10,6,534
2021-02-11,5,498
2021-02-12,7,470
2021-02-13,8,459
2021-02-14,11,376
2021-02-15,9,689
2021-02-16,11,676
2021-02-17,9,674
2021-02-18,13,734
2021-02-19,11,708
2021-02-20,7,694
2021-02-21,5,698
2021-02-22,5,664
2021-02-23,5,702
2021-02-24,10,689
2021-02-25,13,701
2021-02-26,8,727
2021-02-27,12,649
2021-02-28,9,677
2021-03-01,15,722
2021-03-02,11,710
2021-03-03,10,695
2021-03-04,10,705
2021-03-05,12,718
2021-03-06,10,695
2021-03-07,9,678
2021-03-08,10,557
2021-03-09,8,530
2021-03-10,11,562
2021-03-11,11,566
2021-03-12,10,572
2021-03-13,11,553
2021-03-14,5,520
2021-03-15,5,509
2021-03-16,1,593
2021-03-17,9,513
2021-03-18,13,477
2021-03-19,7,506
2021-03-20,15,546
2021-03-21,10,427
2021-03-22,8,486
2021-03-23,8,428
2021-03-24,5,466
2021-03-25,10,593
2021-03-26,10,508
2021-03-27,5,506
2021-03-28,10,455
2021-03-29,10,443
2021-03-30,10,508
2021-03-31,7,446
2021-04-01,15,477
2021-04-02,5,463
2021-04-03,11,395
2021-04-04,12,481
2021-04-05,10,443
2021-04-06,10,473
2021-04-07,10,489
2021-04-08,8,545
2021-04-09,15,513
2021-04-10,13,497
2021-04-11,13,471
2021-04-12,10,400
2021-04-13,8,483
2021-04-14,15,522
2021-04-15,11,502
2021-04-16,8,768
2021-04-17,11,707
2021-04-18,10,677
2021-04-19,9,689
2021-04-20,14,685
2021-04-21,10,734
2021-04-22,9,692
2021-04-23,16,731
2021-04-24,9,641
2021-04-25,14,699
2021-04-26,16,705
2021-04-27,14,707
2021-04-28,13,717
2021-04-29,7,720
2021-04-30,15,753
2021-05-01,23,662
2021-05-02,9,687
2021-05-03,22,686
2021-05-04,16,719
2021-05-05,15,719
2021-05-06,15,694
2021-05-07,15,726
2021-05-08,15,745
2021-05-09,15,718
2021-05-10,13,725
2021-05-11,17,724
2021-05-12,9,721
2021-05-13,11,727
2021-05-14,13,767
2021-05-15,17,770
2021-05-16,18,688
2021-05-17,19,741
2021-05-18,11,703
2021-05-19,14,707
2021-05-20,15,723
2021-05-21,10,737
2021-05-22,24,745
2021-05-23,26,737
2021-05-24,17,752
2021-05-25,15,741
2021-05-26,13,757
2021-05-27,20,742
2021-05-28,11,777
2021-05-29,8,755
2021-05-30,13,726
2021-05-31,15,741
2021-06-01,17,686
2021-06-02,28,767
2021-06-03,16,736
2021-06-04,16,768
2021-06-05,7,520
2021-06-06,12,769
2021-06-07,14,704
2021-06-08,13,785
2021-06-09,11,757
2021-06-10,17,760
2021-06-11,12,764
2021-06-12,16,772
2021-06-13,16,767
2021-06-14,22,779
2021-06-15,12,800
2021-06-16,19,778
2021-06-17,14,802
2021-06-18,18,792
2021-06-19,15,763
2021-06-20,17,754
2021-06-21,19,811
2021-06-22,16,790
2021-06-23,15,836
2021-06-24,17,804
2021-06-25,9,810
2021-06-26,17,769
2021-06-27,16,751
2021-06-28,12,801
2021-06-29,7,788
2021-06-30,8,823
2021-07-01,16,787
2021-07-02,10,826
2021-07-03,12,749
2021-07-04,4,776
2021-07-05,9,827
2021-07-06,10,790
2021-07-07,12,785
2021-07-08,11,786
2021-07-09,9,791
2021-07-10,7,774
2021-07-11,16,764
2021-07-12,6,787
2021-07-13,9,802
2021-07-14,10,798
2021-07-15,16,824
2021-07-16,18,815
2021-07-17,10,753
2021-07-18,12,29
2021-07-19,10,188
2021-07-20,12,830
2021-07-21,9,759
2021-07-22,3,803
2021-07-23,12,765
2021-07-24,11,799
2021-07-25,12,778
2021-07-26,15,807
2021-07-27,7,767
2021-07-28,10,809
2021-07-29,13,790
2021-07-30,10,825
2021-07-31,14,797
2021-08-01,10,787
2021-08-02,8,834
2021-08-03,12,804
2021-08-04,8,812
2021-08-05,8,831
2021-08-06,7,838
2021-08-07,8,815
2021-08-08,10,777
2021-08-09,14,820
2021-08-10,14,864
2021-08-11,8,807
2021-08-12,11,840
2021-08-13,19,822
2021-08-14,13,832
2021-08-15,5,788
2021-08-16,12,838
2021-08-17,17,845
2021-08-18,15,856
2021-08-19,11,811
2021-08-20,8,857
2021-08-21,7,817
2021-08-22,14,801
2021-08-23,12,853
2021-08-24,16,849
2021-08-25,14,811
2021-08-26,13,846
2021-08-27,11,872
2021-08-28,13,824
2021-08-29,13,790
2021-08-30,18,849
2021-08-31,15,847
2021-09-01,17,836
2021-09-02,16,821
2021-09-03,7,853
2021-09-04,9,807
2021-09-05,8,796
2021-09-06,7,801
2021-09-07,11,767
2021-09-08,5,847
2021-09-09,7,813
2021-09-10,5,835
2021-09-11,11,838
2021-09-12,18,822
2021-09-13,10,831
2021-09-14,14,796
2021-09-15,11,834
2021-09-16,15,850
2021-09-17,15,804
2021-09-18,14,854
2021-09-19,15,815
2021-09-20,25,828
2021-09-21,21,810
2021-09-22,6,841
2021-09-23,12,838
2021-09-24,7,891
2021-09-25,13,835
2021-09-26,21,823
2021-09-27,9,855
2021-09-28,15,875
2021-09-29,8,867
2021-09-30,14,893
2021-10-01,17,812
2021-10-02,6,810
2021-10-03,11,826
2021-10-04,11,830
2021-10-05,13,866
2021-10-06,6,836
2021-10-07,8,843
2021-10-08,12,883
2021-10-09,15,935
2021-10-10,12,836
2021-10-11,10,898
2021-10-12,12,861
2021-10-13,9,893
2021-10-14,9,896
2021-10-15,18,903
2021-10-16,10,883
2021-10-17,10,844
2021-10-18,10,919
2021-10-19,6,875
2021-10-20,5,906
2021-10-21,5,884
2021-10-22,9,886
2021-10-23,6,914
2021-10-24,8,856
2021-10-25,7,911
2021-10-26,10,895
2021-10-27,11,897
2021-10-28,6,924
2021-10-29,13,920
2021-10-30,12,937
2021-10-31,24,896
2021-11-01,12,879
2021-11-02,10,951
2021-11-03,12,914
2021-11-04,8,902
2021-11-05,19,913
2021-11-06,18,947
2021-11-07,13,862
2021-11-08,17,911
2021-11-09,12,950
2021-11-10,13,907
2021-11-11,9,921
2021-11-12,11,991
2021-11-13,11,908
2021-11-14,11,884
2021-11-15,12,918
2021-11-16,7,941
2021-11-17,9,896
2021-11-18,9,953
2021-11-19,10,952
2021-11-20,13,949
2021-11-21,13,871
2021-11-22,6,914
2021-11-23,11,912
2021-11-24,10,909
2021-11-25,5,921
2021-11-26,8,931
2021-11-27,9,890
2021-11-28,14,868
2021-11-29,13,889
2021-11-30,18,943
2021-12-01,10,897
2021-12-02,11,925
2021-12-03,8,936
2021-12-04,10,939
2021-12-05,18,903
2021-12-06,9,912
2021-12-07,6,925
2021-12-08,12,912
2021-12-09,8,916
2021-12-10,10,924
2021-12-11,17,945
2021-12-12,19,910
2021-12-13,7,900
2021-12-14,6,899
2021-12-15,14,903
2021-12-16,13,888
2021-12-17,7,951
2021-12-18,16,910
2021-12-19,12,886
2021-12-20,8,909
2021-12-21,9,891
2021-12-22,13,935
2021-12-23,9,906
2021-12-24,14,914
2021-12-25,17,871
2021-12-26,15,862
2021-12-27,5,937
2021-12-28,14,923
2021-12-29,7,916
2021-12-30,10,902
2021-12-31,9,967
2022-01-01,12,888
2022-01-02,9,929
2022-01-03,9,900
2022-01-04,13,931
2022-01-05,9,924
2022-01-06,7,932
2022-01-07,9,947
2022-01-08,15,937
2022-01-09,6,49
2022-01-10,12,0
2022-01-11,4,955
2022-01-12,6,903
2022-01-13,10,929
2022-01-14,10,944
2022-01-15,10,939
2022-01-16,10,909
2022-01-17,8,921
2022-01-18,4,915
2022-01-19,6,947
2022-01-20,7,950
2022-01-21,9,928
2022-01-22,9,911
2022-01-23,17,925
2022-01-24,9,916
2022-01-25,9,958
2022-01-26,9,930
2022-01-27,10,912
2022-01-28,9,899
2022-01-29,7,925
2022-01-30,4,856
2022-01-31,9,871
2022-02-01,20,869
2022-02-02,14,833
2022-02-03,10,885
2022-02-04,16,857
2022-02-05,18,890
2022-02-06,19,923
2022-02-07,6,926
2022-02-08,10,963
2022-02-09,10,929
2022-02-10,8,954
2022-02-11,21,959
2022-02-12,7,931
2022-02-13,9,909
2022-02-14,11,952
2022-02-15,12,935
2022-02-16,16,928
2022-02-17,13,942
2022-02-18,8,942
2022-02-19,9,918
2022-02-20,9,901
2022-02-21,7,957
2022-02-22,5,915
2022-02-23,9,942
2022-02-24,13,953
2022-02-25,11,951
2022-02-26,13,934
2022-02-27,9,908
2022-02-28,15,935
2022-03-01,14,941
2022-03-02,8,957
2022-03-03,22,942
2022-03-04,10,971
2022-03-05,15,941
2022-03-06,10,920
2022-03-07,13,936
2022-03-08,19,945
2022-03-09,7,976
2022-03-10,14,930
2022-03-11,19,962
2022-03-12,15,952
2022-03-13,14,962
2022-03-14,13,916
2022-03-15,12,957
2022-03-16,11,937
2022-03-17,5,988
2022-03-18,11,987
2022-03-19,16,964
2022-03-20,16,982
2022-03-21,11,961
2022-03-22,12,987
2022-03-23,11,997
2022-03-24,10,983
2022-03-25,9,1043
2022-03-26,7,976
2022-03-27,14,968
2022-03-28,12,980
2022-03-29,12,985
2022-03-30,16,970
2022-03-31,12,1019
2022-04-01,10,994
2022-04-02,10,1024
2022-04-03,12,992
2022-04-04,17,971
2022-04-05,22,984
2022-04-06,12,1039
2022-04-07,19,996
2022-04-08,7,1065
2022-04-09,8,1042
2022-04-10,14,1006
2022-04-11,14,990
2022-04-12,10,1032
2022-04-13,17,1046
2022-04-14,9,1023
2022-04-15,16,1072
2022-04-16,17,1038
2022-04-17,14,973
2022-04-18,10,1010
2022-04-19,11,1040
2022-04-20,11,1029
2022-04-21,14,1026
2022-04-22,11,1048
2022-04-23,18,984
2022-04-24,8,990
2022-04-25,12,1032
2022-04-26,16,1023
2022-04-27,15,1015
2022-04-28,13,1036
2022-04-29,14,1058
2022-04-30,20,1022
2022-05-01,17,1007
2022-05-02,19,1013
2022-05-03,16,1009
2022-05-04,15,1010
2022-05-05,14,1018
2022-05-06,12,1051
2022-05-07,17,1009
2022-05-08,15,1031
2022-05-09,9,1027
2022-05-10,12,1036
2022-05-11,11,1036
2022-05-12,14,1020
2022-05-13,12,1084
2022-05-14,10,1036
2022-05-15,8,982
2022-05-16,9,1016
2022-05-17,14,1004
2022-05-18,10,1025
2022-05-19,13,1033
2022-05-20,6,1045
2022-05-21,14,1004
2022-05-22,13,1011
2022-05-23,9,984
2022-05-24,12,1002
2022-05-25,6,1022
2022-05-26,11,1035
2022-05-27,8,1020
2022-05-28,3,1034
2022-05-29,8,1007
2022-05-30,8,1000
2022-05-31,7,1002
2022-06-01,6,1037
2022-06-02,9,1037
2022-06-03,15,1005
2022-06-04,13,1015
2022-06-05,12,1011
2022-06-06,6,1033
2022-06-07,15,1049
2022-06-08,7,1024
2022-06-09,13,1022
2022-06-10,11,1038
2022-06-11,21,1003
2022-06-12,8,989
2022-06-13,13,1020
2022-06-14,7,1024
2022-06-15,9,985
2022-06-16,16,1019
2022-06-17,12,1061
2022-06-18,15,993
2022-06-19,12,988
2022-06-20,14,1044
2022-06-21,16,1017
2022-06-22,9,1043
2022-06-23,13,1013
2022-06-24,12,1026
2022-06-25,16,1044
2022-06-26,5,992
2022-06-27,7,1029
2022-06-28,12,965
2022-06-29,14,1008
2022-06-30,16,1016
2022-07-01,11,1012
2022-07-02,10,999
2022-07-03,11,1019
2022-07-04,20,1002
2022-07-05,9,1023
2022-07-06,6,1029
2022-07-07,15,1038
2022-07-08,8,1038
2022-07-09,12,975
2022-07-10,8,1024
2022-07-11,8,1013
2022-07-12,10,1017
2022-07-13,7,1108
2022-07-14,12,1052
2022-07-15,10,1064
2022-07-16,9,1020
2022-07-17,9,1004
2022-07-18,11,1045
2022-07-19,13,1089
2022-07-20,16,1037
2022-07-21,9,1067
2022-07-22,9,1034
2022-07-23,12,1047
2022-07-24,5,719
2022-07-25,6,1090
2022-07-26,15,1053
2022-07-27,12,1082
2022-07-28,15,1052
2022-07-29,12,1082
2022-07-30,25,965
2022-07-31,25,1059
2022-08-01,19,1078
2022-08-02,16,1087
2022-08-03,22,1085
2022-08-04,19,1070
2022-08-05,16,1094
2022-08-06,19,1036
2022-08-07,22,1033
2022-08-08,22,1109
2022-08-09,29,1082
2022-08-10,26,1082
2022-08-11,18,1082
2022-08-12,22,1102
2022-08-13,18,1045
2022-08-14,22,1038
2022-08-15,21,1056
2022-08-16,23,1066
2022-08-17,23,1088
2022-08-18,26,1073
2022-08-19,19,1053
2022-08-20,23,1088
2022-08-21,18,1069
2022-08-22,21,1122
2022-08-23,26,1118
2022-08-24,16,1131
2022-08-25,13,1071
2022-08-26,22,1083
2022-08-27,21,1100
2022-08-28,19,1053
2022-08-29,14,1095
2022-08-30,26,1114
2022-08-31,27,1099
2022-09-01,19,1076
2022-09-02,23,1127
2022-09-03,22,1126
2022-09-04,15,1070
2022-09-05,17,1154
2022-09-06,16,1082
2022-09-07,15,1089
2022-09-08,13,1080
2022-09-09,18,1182
2022-09-10,25,1079
2022-09-11,21,1107
2022-09-12,20,1090
2022-09-13,22,1128
2022-09-14,18,1128
2022-09-15,20,1128
2022-09-16,17,1210
2022-09-17,13,1156
2022-09-18,16,1115
2022-09-19,20,1138
2022-09-20,16,1181
2022-09-21,11,1155
2022-09-22,11,1160
2022-09-23,24,1162
2022-09-24,30,1184
2022-09-25,23,1136
2022-09-26,12,1120
2022-09-27,12,1135
2022-09-28,14,1144
2022-09-29,10,1152
2022-09-30,21,1168
2022-10-01,25,1134
2022-10-02,20,1109
2022-10-03,27,1142
2022-10-04,15,1131
2022-10-05,15,1117
2022-10-06,18,1158
2022-10-07,6,1132
2022-10-08,13,1173
2022-10-09,18,1193
2022-10-10,13,1163
2022-10-11,17,1175
2022-10-12,13,1159
2022-10-13,12,1169
2022-10-14,15,1225
2022-10-15,24,1225
2022-10-16,22,1159
2022-10-17,15,1191
2022-10-18,16,1236
2022-10-19,14,1197
2022-10-20,12,1172
2022-10-21,14,1243
2022-10-22,18,1202
2022-10-23,16,1200
2022-10-24,13,1187
2022-10-25,14,1168
2022-10-26,19,1192
2022-10-27,12,1197
2022-10-28,24,1183
2022-10-29,22,1218
2022-10-30,25,1138
2022-10-31,21,1193
2022-11-01,16,1192
2022-11-02,8,1194
2022-11-03,23,1239
2022-11-04,13,1224
2022-11-05,23,1241
2022-11-06,27,1194
2022-11-07,6,1218
2022-11-08,25,1203
2022-11-09,11,1204
2022-11-10,13,1224
2022-11-11,18,1248
2022-11-12,24,1221
2022-11-13,23,1169
2022-11-14,20,1229
2022-11-15,19,1247
2022-11-16,23,1239
2022-11-17,16,1075
2022-11-18,24,1119
2022-11-19,58,1130
2022-11-20,33,1179
2022-11-21,39,1216
2022-11-22,51,1303
2022-11-23,28,1240
2022-11-24,21,1294
2022-11-25,24,1285
2022-11-26,28,1251
2022-11-27,23,1214
2022-11-28,16,1303
2022-11-29,29,1274